Miscellaneous Local Product
Issued by NWS North Platte, NE

Home | Current Version | Previous Version | Graphics & Text | Print | Product List | Glossary On
Versions: 1 2 3 4 5 6 7 8 9 10 11 12 13 14 15 16 17 18 19 20 21 22 23 24 25 26 27 28 29 30 31 32 33 34 35 36 37 38 39 40 41 42 43 44 45 46 47 48 49 50
000
AXUS43 KLBF 231110
MISLBF


WESTERN AND NORTH CENTRAL NEBRASKA HOURLY WEATHER ROUNDUP
NATIONAL WEATHER SERVICE NORTH PLATTE NE
500 AM CST THU NOV 23 2017

NOTE: "FAIR" INDICATES FEW OR NO CLOUDS BELOW 12,000 FEET WITH NO
SIGNIFICANT WEATHER AND/OR OBSTRUCTIONS TO VISIBILITY.

NOTE: STATIONS NOT REPORTING VARIABLES SUCH AS SKY/WEATHER OR
PRESSURE ARE PROVIDED BY RAWS AND APRS NETWORKS AND ARE NOT UNDER
NATIONAL WEATHER SERVICE QUALITY CONTROL.

...OBSERVATIONS IN AND NEAR THE EASTERN PANHANDLE OF NEBRASKA...

CITY           SKY/WX    TMP DP  RH WIND       PRES   REMARKS
PINE RIDGE     PTCLDY    39  36  89 CALM      30.07F
GORDON         FAIR      44  37  78 W10       30.06F
CHADRON        CLOUDY    36  34  92 SW9       30.07F WCI  29
ALLIANCE       CLOUDY    35  34  96 W10       30.11F WCI  27
SIDNEY         CLOUDY    43  37  79 W12       30.16F
CRESCENT LAKE    N/A     42  38  85 NW5G12      N/A
$$

...OBSERVATIONS IN NORTHERN NEBRASKA AND FAR SOUTHERN SOUTH DAKOTA...

CITY           SKY/WX    TMP DP  RH WIND       PRES   REMARKS
WINNER         FAIR      43  36  76 S8        29.99F
VALENTINE      CLOUDY    37  33  85 SW10      30.02F WCI  30
THEDFORD       CLOUDY    38  35  89 W5        30.07F WCI  35
AINSWORTH      CLEAR     40  36  87 W5        30.03F
O`NEILL        CLEAR     37  34  92 W5        30.02F WCI  33
ORD            CLEAR     31  30  96 W5        30.04R WCI  26
BROKEN BOW     CLEAR     41  34  76 CALM      30.05S
VALENTINE NWR    N/A     44  36  74 W6          N/A
HALSEY           N/A     44  36  73 W6          N/A
BUTTE            N/A     37  33  87 SW5         N/A  WCI  33
CHAMBERS         N/A     41  36  81 W7          N/A
EWING            N/A     36  32  86 CALM        N/A
$$

...OBSERVATIONS IN SOUTHWEST NEBRASKA AND FAR NORTHEAST COLORADO...

CITY           SKY/WX    TMP DP  RH WIND       PRES   REMARKS
HOLYOKE        FAIR      43  37  81 W9        30.15F
IMPERIAL       CLEAR     39  37  92 CALM      30.13F
OGALLALA       CLEAR     38  35  87 W7        30.11F WCI  33
NORTH PLATTE   CLEAR     32  31  96 NW7       30.09F WCI  26
MCCOOK         CLEAR     39  36  89 W8        30.10S WCI  33
LEXINGTON      CLEAR     39  34  83 W7        30.07S WCI  34
STAPLETON        N/A     39  34  83 CALM        N/A
GOTHENBURG       N/A     40  34  78 W7          N/A
CALLAWAY         N/A     38  33  83 NW5         N/A  WCI  34
$$

...OBSERVATIONS IN CENTRAL LINCOLN COUNTY AREA...

CITY           SKY/WX    TMP DP  RH WIND       PRES   REMARKS
N.P. AIRPORT   CLEAR     32  31  96 NW7       30.09F WCI  26
N.P. DOWNTOWN    N/A     36  33  90 CALM        N/A
N.P. SOUTHEAST   N/A     38  34  87 CALM        N/A
N.P. HILLCREST   N/A     39  34  83 W6          N/A  WCI  35
$$

...SOME OBSERVATIONS FROM AROUND THE REGION...

CITY           SKY/WX    TMP DP  RH WIND       PRES   REMARKS
DENVER         CLOUDY    48  32  53 SW12      30.24S
COPPER MTN     CLOUDY    34  32  93 MISG      30.56F
GRAND JUNCTION CLOUDY    35  30  82 E7        30.38F WCI  29
LARAMIE        CLOUDY    38  34  85 W10       30.30F WCI  31
CHEYENNE       CLOUDY    48  36  63 W18G24    30.23F
CASPER         CLOUDY    45  36  70 SW9       30.17F
BISMARCK       CLOUDY    26  22  84 E3        29.89F
RAPID CITY     CLOUDY    47  36  65 W3        30.00F
PIERRE         CLEAR     35  35 100 SW3       29.95F
SIOUX FALLS    CLOUDY    31  26  82 NW6       29.98R WCI  25
OMAHA          CLEAR     32  22  66 CALM      30.00S
GRAND ISLAND   CLEAR     37  34  89 W5        30.05R WCI  33
SCOTTSBLUFF    CLOUDY    39  35  86 N9        30.13F WCI  33
KANSAS CITY    CLEAR     36  22  56 SW14      30.04F WCI  27
HILL CITY      CLEAR     41  36  82 W7        30.08F
WICHITA        CLEAR     32  23  69 S3        30.08S
DODGE CITY     CLOUDY    45  32  60 NW8       30.11R
OKLAHOMA CITY  CLOUDY    32  23  69 S7        30.13F WCI  26
DALLAS         CLOUDY    37  29  72 S3        30.18F
AMARILLO       CLOUDY    48  30  49 NW12      30.18F
$$




USA.gov is the U.S. government's official web portal to all federal, state and local government web resources and services.